Date,TemperatureHighF,TemperatureAvgF,TemperatureLowF,DewpointHighF,DewpointAvgF,DewpointLowF,HumidityHigh,HumidityAvg,HumidityLow,PressureMaxIn,PressureMinIn,WindSpeedMaxMPH,WindSpeedAvgMPH,GustSpeedMaxMPH,PrecipitationSumIn
2013-1-1,54,47,42,42,37,32,87,70,48,30.20,30.14,11,2,18,0.00
2013-1-2,58,48,41,40,36,34,87,67,41,30.17,30.07,7,2,11,0.00
2013-1-3,57,47,41,42,39,36,90,74,54,30.19,30.09,8,2,10,0.00
2013-1-4,59,49,41,41,38,36,89,68,44,30.22,30.11,9,2,11,0.00
2013-1-5,52,48,44,48,44,40,96,87,78,30.19,29.99,11,1,14,0.17
2013-1-6,52,47,44,47,43,42,96,87,70,30.12,29.97,11,2,13,0.25
2013-1-7,57,50,42,51,46,41,98,89,71,30.20,30.09,7,1,12,0.00
2013-1-8,62,52,45,49,46,43,94,81,59,30.17,30.06,7,1,8,0.00
2013-1-9,53,48,44,50,44,37,96,86,72,30.08,29.94,24,3,31,0.01
2013-1-10,52,46,42,39,35,33,78,68,51,30.13,30.01,16,4,19,0.00
2013-1-11,51,45,42,41,36,30,85,72,58,30.19,30.06,18,4,21,0.00
2013-1-12,50,44,38,38,32,23,86,65,35,30.18,30.08,6,2,11,0.00
2013-1-13,52,43,36,36,26,15,72,51,32,30.20,30.11,6,2,11,0.00
2013-1-14,51,44,37,35,22,14,76,43,25,30.33,30.16,16,2,25,0.00
2013-1-15,55,46,39,37,32,26,87,61,34,30.41,30.32,6,2,11,0.00
2013-1-16,58,47,39,38,35,33,87,65,41,30.36,30.18,7,2,10,0.00
2013-1-17,63,51,43,40,35,32,76,55,32,30.19,30.08,10,4,13,0.00
2013-1-18,65,54,44,41,36,32,82,53,29,30.15,30.06,10,4,13,0.00
2013-1-19,64,54,44,42,35,32,78,51,31,30.17,30.08,8,4,14,0.00
2013-1-20,65,54,46,39,34,30,74,49,28,30.15,30.06,8,4,12,0.00
2013-1-21,64,53,44,43,38,34,74,58,38,30.10,30.01,10,3,12,0.00
2013-1-22,62,54,46,43,40,37,84,61,43,30.04,29.93,9,3,12,0.00
2013-1-23,57,52,50,50,45,39,95,78,54,30.01,29.88,7,2,10,0.02
2013-1-24,58,53,50,51,50,48,95,88,78,30.12,29.99,6,2,10,0.02
2013-1-25,66,56,51,55,52,49,96,85,66,30.12,29.97,12,2,14,0.00
2013-1-26,55,51,48,50,45,41,98,82,68,30.02,29.94,21,7,25,0.01
2013-1-27,55,48,44,43,39,35,84,70,51,30.11,30.01,14,5,21,0.00
2013-1-28,57,49,45,44,41,36,88,73,55,30.23,30.10,15,5,20,0.00
2013-1-29,57,50,46,48,43,40,90,77,59,30.30,30.19,16,4,18,0.00
2013-1-30,64,53,47,49,44,40,90,72,44,30.27,30.19,10,2,13,0.00
2013-1-31,65,54,45,48,45,42,92,73,51,30.21,30.10,7,2,11,0.00
2013-2-1,67,55,47,48,46,44,96,74,47,30.16,30.04,12,3,13,0.00
2013-2-2,56,50,47,49,47,44,96,89,76,30.23,30.15,11,2,14,0.00
2013-2-3,56,50,46,47,44,41,95,81,65,30.19,30.08,13,4,17,0.00
2013-2-4,56,48,46,49,46,44,96,91,78,30.11,30.01,13,3,17,0.00
2013-2-5,54,49,47,48,45,41,94,86,76,30.09,30.01,15,5,21,0.00
2013-2-6,56,49,43,47,44,40,94,83,58,30.13,30.06,18,3,22,0.00
2013-2-7,53,48,43,48,43,39,95,85,65,30.11,29.93,13,2,16,0.21
2013-2-8,52,47,40,44,39,26,94,76,40,29.96,29.87,17,3,21,0.38
2013-2-9,59,50,43,41,34,22,83,55,25,30.03,29.93,11,2,14,0.00
2013-2-10,62,49,42,45,40,33,93,73,38,30.06,29.96,9,1,14,0.00
2013-2-11,64,52,47,47,36,25,93,58,25,30.17,30.00,12,3,15,0.00
2013-2-12,61,49,43,47,45,40,96,85,49,30.29,30.16,11,2,13,0.00
2013-2-13,56,49,44,48,46,43,97,90,70,30.28,30.16,13,3,17,0.00
2013-2-14,70,55,45,49,45,42,98,71,38,30.18,30.09,7,2,11,0.00
2013-2-15,74,61,53,46,42,39,76,51,29,30.19,30.12,9,3,11,0.00
2013-2-16,69,56,48,52,46,42,94,70,43,30.15,29.99,15,4,20,0.00
2013-2-17,58,50,46,47,45,42,94,82,57,29.99,29.92,14,4,20,0.00
2013-2-18,52,48,46,45,41,37,93,79,65,29.98,29.90,19,6,23,0.00
2013-2-19,47,44,41,44,39,33,93,81,64,29.90,29.69,19,6,29,0.39
2013-2-20,56,47,40,44,38,32,83,72,50,29.99,29.78,17,5,23,0.00
2013-2-21,58,49,43,44,39,33,90,69,40,30.10,29.99,15,4,18,0.00
2013-2-22,58,49,43,46,43,40,92,80,55,30.19,30.10,19,5,24,0.00
2013-2-23,56,50,46,48,40,30,96,71,48,30.19,30.10,20,6,22,0.01
2013-2-24,62,51,46,44,32,22,90,52,25,30.18,30.11,15,4,18,0.00
2013-2-25,59,50,44,48,44,42,94,82,64,30.20,30.11,17,4,19,0.00
2013-2-26,63,51,43,44,38,23,89,65,22,30.15,30.08,13,3,19,0.00
2013-2-27,63,51,45,49,45,40,95,79,55,30.30,30.14,15,4,20,0.00
2013-2-28,58,51,48,52,49,47,98,91,79,30.39,30.30,15,4,19,0.00
2013-3-1,72,56,47,55,49,46,99,81,46,30.37,30.17,11,2,15,0.00
2013-3-2,68,55,49,53,49,48,95,82,56,30.17,30.01,13,3,17,0.00
2013-3-3,56,50,47,50,47,44,96,91,80,30.04,29.99,19,6,21,0.00
2013-3-4,53,47,45,45,43,41,94,87,72,30.09,30.00,18,4,21,0.00
2013-3-5,55,49,43,46,42,40,91,78,64,30.00,29.78,25,8,37,0.09
2013-3-6,53,50,45,49,44,42,94,82,65,30.01,29.78,26,8,36,0.22
2013-3-7,55,48,44,45,43,38,94,83,56,29.93,29.80,11,3,16,0.05
2013-3-8,53,49,45,46,44,38,94,83,70,29.98,29.77,26,9,34,0.06
2013-3-9,60,51,43,47,44,40,94,79,53,30.24,29.99,15,4,20,0.00
2013-3-10,62,52,46,50,46,43,95,82,52,30.28,30.19,13,3,15,0.00
2013-3-11,69,52,45,50,47,43,96,83,43,30.19,30.06,12,3,16,0.00
2013-3-12,65,51,46,52,48,45,98,89,63,30.10,30.02,13,4,16,0.00
2013-3-13,74,54,44,54,49,44,98,86,49,30.09,30.01,14,2,15,0.00
2013-3-14,56,49,46,50,47,45,99,93,80,30.12,30.02,14,4,20,0.00
2013-3-15,66,52,47,52,48,46,97,88,59,30.08,29.98,19,4,21,0.00
2013-3-16,60,51,47,50,47,46,99,87,70,30.06,29.97,20,6,25,0.00
2013-3-17,61,52,47,47,44,43,91,77,54,30.09,29.99,17,4,27,0.00
2013-3-18,59,50,45,48,46,43,95,85,64,30.06,29.98,14,4,17,0.00
2013-3-19,62,52,48,49,46,43,93,82,50,30.08,29.99,13,2,18,0.08
2013-3-20,58,52,48,54,49,44,98,91,71,30.08,30.00,16,4,21,0.13
2013-3-21,58,50,42,47,43,40,97,79,56,30.08,29.96,17,5,21,0.01
2013-3-22,62,52,45,44,39,20,93,64,21,30.06,29.96,18,4,21,0.00
2013-3-23,66,53,46,46,40,26,91,64,22,30.07,29.99,13,3,21,0.00
2013-3-24,58,50,46,48,45,43,94,85,67,30.04,29.92,16,5,20,0.00
2013-3-25,54,48,46,45,44,43,93,85,71,29.98,29.86,20,5,24,0.00
2013-3-26,57,51,47,48,46,43,93,83,69,29.95,29.89,14,4,19,0.00
2013-3-27,59,53,49,53,50,46,96,89,77,29.95,29.89,13,3,17,0.00
2013-3-28,63,55,52,55,52,50,97,90,74,30.02,29.94,12,3,15,0.00
2013-3-29,73,55,49,54,50,48,98,87,49,30.02,29.96,21,3,21,0.00
2013-3-30,67,56,50,54,52,49,98,87,57,30.01,29.91,15,4,22,0.09
2013-3-31,63,57,53,55,52,50,94,84,67,30.00,29.92,22,5,26,0.08
2013-4-1,60,55,50,54,52,49,97,91,78,30.09,29.98,15,3,17,0.40
2013-4-2,57,52,48,52,50,47,98,93,82,30.14,30.04,14,4,18,0.00
2013-4-3,74,52,47,54,49,44,98,89,34,30.09,29.94,14,3,21,0.00
2013-4-4,62,55,49,56,53,48,98,94,80,30.06,29.93,21,6,27,0.36
2013-4-5,60,55,51,55,53,50,99,93,76,30.13,30.05,15,4,18,0.02
2013-4-6,58,54,51,55,52,49,99,95,87,30.13,30.08,14,4,19,0.02
2013-4-7,60,54,51,55,51,47,97,90,77,30.11,29.79,30,6,31,0.03
2013-4-8,61,52,47,47,42,36,87,69,46,29.96,29.75,21,8,34,0.04
2013-4-9,70,62,55,49,40,31,75,45,28,30.03,29.96,16,5,21,0.00
2013-4-10,69,58,50,53,48,40,95,71,44,30.12,29.99,22,6,28,0.00
2013-4-11,67,53,47,50,47,45,96,81,52,30.01,29.79,18,6,26,0.00
2013-4-12,59,50,46,50,46,44,96,86,70,29.87,29.78,19,5,23,0.00
2013-4-13,59,51,47,50,45,42,92,79,65,29.84,29.77,29,8,33,0.00
2013-4-14,58,50,44,46,42,39,94,75,54,29.88,29.82,26,6,32,0.00
2013-4-15,55,48,44,48,41,38,96,77,59,29.90,29.80,32,9,42,0.01
2013-4-16,60,52,43,44,38,29,80,61,34,30.09,29.89,17,5,24,0.00
2013-4-17,66,57,48,45,35,26,88,46,23,30.20,30.09,19,6,21,0.00
2013-4-18,70,55,47,48,44,33,91,71,26,30.20,30.14,12,3,18,0.00
2013-4-19,68,54,47,52,48,45,95,79,55,30.17,30.01,19,5,20,0.00
2013-4-20,71,54,48,51,47,41,94,79,35,30.05,29.94,14,4,20,0.00
2013-4-21,75,59,48,52,48,45,91,69,35,29.98,29.87,13,4,17,0.00
2013-4-22,85,64,50,51,47,37,90,58,19,29.90,29.79,17,3,18,0.00
2013-4-23,74,58,48,50,41,22,94,63,16,29.88,29.79,21,5,24,0.00
2013-4-24,55,50,47,50,48,45,96,90,80,29.89,29.78,18,6,24,0.00
2013-4-25,60,54,50,51,49,46,95,85,72,30.07,29.88,15,5,21,0.00
2013-4-26,57,52,48,49,47,46,92,85,74,30.18,30.06,19,5,24,0.00
2013-4-27,56,50,47,50,47,46,97,92,80,30.17,30.02,20,5,23,0.00
2013-4-28,65,55,48,52,49,46,94,81,61,30.03,29.83,16,5,19,0.00
2013-4-29,73,59,50,55,50,47,88,74,50,29.84,29.71,16,5,21,0.00
2013-4-30,69,56,48,50,46,24,93,73,18,29.81,29.73,17,4,20,0.00
2013-5-1,78,64,53,50,37,20,87,45,13,30.01,29.78,16,4,22,0.00
2013-5-2,88,69,54,52,40,26,79,40,11,30.08,30.01,16,4,18,0.00
2013-5-3,76,63,52,52,45,31,89,54,28,30.01,29.73,13,4,17,0.00
2013-5-4,68,58,52,55,50,44,94,78,54,29.73,29.51,21,5,29,0.00
2013-5-5,65,59,54,51,49,47,80,70,55,29.74,29.55,23,7,29,0.00
2013-5-6,67,60,56,53,51,48,87,73,56,29.90,29.74,14,4,19,0.00
2013-5-7,65,58,52,55,53,50,97,84,68,29.99,29.88,15,5,18,0.00
2013-5-8,58,53,51,52,50,48,97,90,77,30.08,29.97,20,6,23,0.00
2013-5-9,58,53,50,50,49,47,92,86,76,30.12,30.04,19,7,27,0.00
2013-5-10,55,51,49,52,50,48,97,94,86,30.13,30.05,20,6,26,0.00
2013-5-11,63,53,49,55,50,48,98,91,73,30.10,30.00,16,5,20,0.00
2013-5-12,61,55,51,55,52,50,98,92,77,30.10,29.98,15,5,21,0.00
2013-5-13,59,54,50,55,52,50,99,92,81,30.04,29.90,18,7,25,0.00
2013-5-14,60,54,50,51,49,46,95,84,72,29.94,29.87,25,9,31,0.00
2013-5-15,59,53,49,52,49,46,96,87,74,29.99,29.92,23,10,32,0.00
2013-5-16,59,54,51,55,52,50,99,94,80,29.98,29.91,19,6,25,0.01
2013-5-17,61,54,50,53,50,48,95,85,68,30.01,29.92,20,7,27,0.00
2013-5-18,65,56,49,52,50,47,95,81,59,30.08,29.99,25,9,27,0.00
2013-5-19,67,57,50,54,50,48,95,78,54,30.06,29.93,16,4,21,0.00
2013-5-20,74,59,50,56,50,48,91,76,46,29.94,29.87,16,5,26,0.00
2013-5-21,60,53,48,50,47,42,92,80,65,29.95,29.85,31,14,36,0.00
2013-5-22,58,52,46,44,40,32,83,66,43,29.96,29.85,21,8,33,0.00
2013-5-23,60,52,47,46,44,42,88,75,53,29.95,29.86,23,8,25,0.00
2013-5-24,61,52,46,48,46,44,94,80,57,29.95,29.88,26,6,30,0.00
2013-5-25,58,52,47,49,47,45,95,85,69,30.00,29.89,27,8,28,0.00
2013-5-26,60,54,50,54,52,49,98,92,79,30.07,29.99,16,6,23,0.02
2013-5-27,56,54,50,55,52,49,98,96,91,30.06,29.94,20,5,21,0.06
2013-5-28,61,55,52,58,54,51,99,94,81,29.94,29.86,23,6,25,0.08
2013-5-29,62,56,51,55,52,48,97,87,71,29.93,29.84,22,7,28,0.00
2013-5-30,65,55,48,50,48,47,95,79,59,29.94,29.87,21,5,27,0.00
2013-5-31,71,57,49,52,49,46,93,77,49,29.96,29.86,17,5,24,0.00
2013-6-1,68,57,49,52,49,47,92,77,55,29.88,29.73,23,5,23,0.00
2013-6-2,59,52,49,52,49,48,96,89,76,29.74,29.64,22,8,27,0.00
2013-6-3,64,55,50,53,51,48,95,86,67,29.80,29.66,23,5,28,0.00
2013-6-4,61,55,52,54,51,50,95,89,77,29.90,29.79,22,6,27,0.00
2013-6-5,58,54,51,52,50,49,95,88,79,29.94,29.87,22,7,26,0.00
2013-6-6,60,54,50,53,50,49,97,90,75,29.90,29.81,21,7,24,0.00
2013-6-7,66,56,50,57,52,50,98,88,69,29.84,29.67,17,6,20,0.00
2013-6-8,64,58,51,56,53,50,95,85,73,29.74,29.66,31,8,33,0.00
2013-6-9,61,56,54,57,54,53,97,94,84,29.82,29.73,22,8,28,0.00
2013-6-10,65,57,53,54,53,51,97,86,68,29.89,29.75,23,8,27,0.00
2013-6-11,64,56,52,55,52,50,95,85,71,29.93,29.84,17,4,23,0.00
2013-6-12,64,56,50,52,50,48,94,81,65,29.94,29.85,24,9,31,0.00
2013-6-13,67,56,48,52,49,46,93,79,57,30.04,29.93,18,5,23,0.00
2013-6-14,69,57,50,55,50,48,92,79,56,29.94,29.78,19,5,21,0.00
2013-6-15,55,51,49,51,49,48,96,93,86,29.94,29.78,22,9,27,0.00
2013-6-16,60,54,50,54,50,48,96,89,78,30.03,29.93,21,7,26,0.00
2013-6-17,64,56,50,56,53,49,98,91,77,30.04,29.97,19,8,29,0.00
2013-6-18,61,55,52,54,52,51,98,90,78,29.99,29.94,24,8,27,0.01
2013-6-19,65,57,51,53,50,48,95,80,61,30.00,29.94,22,9,31,0.00
2013-6-20,64,56,49,52,50,48,95,80,63,29.95,29.90,26,6,30,0.00
2013-6-21,63,56,50,53,51,48,96,84,66,29.93,29.86,18,6,26,0.00
2013-6-22,65,57,50,55,51,48,97,83,64,29.88,29.79,22,7,29,0.00
2013-6-23,60,56,52,60,55,52,99,98,97,29.82,29.75,14,6,21,0.02
2013-6-24,60,56,53,58,55,52,99,97,90,29.84,29.73,12,3,18,0.05
2013-6-25,69,63,60,65,61,57,98,93,84,29.92,29.81,18,5,22,0.09
2013-6-26,73,64,59,64,61,58,99,89,73,29.99,29.90,18,3,19,0.01
2013-6-27,73,63,56,62,58,56,99,85,64,30.03,29.95,17,4,21,0.01
2013-6-28,70,62,55,61,57,54,98,85,67,29.97,29.84,19,5,23,0.00
2013-6-29,73,63,56,59,56,54,92,79,60,29.86,29.74,21,5,23,0.00
2013-6-30,65,59,55,57,55,54,95,87,77,29.80,29.71,23,7,27,0.00
2013-7-1,76,60,54,60,55,53,98,87,58,29.80,29.74,18,5,21,0.00
2013-7-2,67,58,55,59,56,54,98,93,76,29.87,29.77,18,7,25,0.00
2013-7-3,71,61,55,60,57,55,99,89,67,29.86,29.71,18,5,23,0.00
2013-7-4,68,62,55,60,56,51,97,83,69,29.73,29.62,21,7,24,0.00
2013-7-5,59,55,52,53,52,51,95,89,81,29.73,29.65,22,9,31,0.00
2013-7-6,61,55,52,54,52,51,95,89,77,29.75,29.69,21,10,26,0.00
2013-7-7,64,57,53,55,53,51,95,88,75,29.80,29.73,19,6,26,0.00
2013-7-8,63,57,53,56,53,52,97,88,76,29.92,29.80,21,6,24,0.00
2013-7-9,64,56,51,58,54,51,99,91,73,29.97,29.89,19,4,21,0.00
2013-7-10,61,55,52,56,53,51,99,94,81,29.93,29.85,18,7,25,0.00
2013-7-11,57,53,50,53,51,50,98,94,85,29.89,29.83,20,8,32,0.00
2013-7-12,59,55,52,54,52,51,95,91,83,29.89,29.83,19,8,28,0.00
2013-7-13,63,56,51,56,52,50,97,89,75,29.91,29.84,24,8,25,0.00
2013-7-14,58,54,51,54,52,50,98,93,84,29.95,29.86,20,7,24,0.00
2013-7-15,59,54,50,55,52,49,99,94,83,29.87,29.78,21,8,29,0.00
2013-7-16,63,56,52,57,54,51,97,91,76,29.97,29.81,18,6,24,0.01
2013-7-17,62,57,53,56,54,52,97,91,81,30.04,29.96,16,5,21,0.00
2013-7-18,60,54,52,55,53,52,99,94,84,30.01,29.89,18,7,24,0.00
2013-7-19,59,54,52,55,52,51,98,94,84,29.90,29.78,20,9,26,0.00
2013-7-20,59,53,51,54,52,50,99,95,83,29.81,29.70,24,9,28,0.00
2013-7-21,58,53,51,54,52,50,99,96,86,29.83,29.72,19,9,27,0.00
2013-7-22,61,56,53,57,55,52,99,96,86,29.91,29.82,16,5,21,0.00
2013-7-23,65,58,54,59,56,54,99,92,78,29.96,29.87,14,4,17,0.00
2013-7-24,65,57,53,57,55,52,99,92,75,29.94,29.85,16,5,23,0.01
2013-7-25,60,55,52,56,53,51,99,95,84,29.97,29.87,18,6,24,0.00
2013-7-26,60,55,52,57,54,52,99,96,85,30.04,29.95,20,8,25,0.00
2013-7-27,60,55,53,56,54,52,99,96,85,29.98,29.81,21,7,26,0.00
2013-7-28,58,54,53,55,53,52,99,96,88,29.83,29.76,28,9,29,0.00
2013-7-29,62,56,53,55,54,52,96,90,79,29.95,29.79,23,9,28,0.00
2013-7-30,60,56,52,56,53,51,97,91,83,30.04,29.95,17,6,26,0.00
2013-7-31,61,55,52,55,53,51,98,92,81,30.04,29.94,20,9,26,0.00
2013-8-1,62,57,54,56,54,52,95,89,78,30.01,29.90,22,8,28,0.00
2013-8-2,60,55,51,55,52,50,98,93,80,29.93,29.85,18,7,25,0.00
2013-8-3,61,55,51,55,53,50,98,93,79,29.92,29.86,20,8,25,0.00
2013-8-4,58,54,52,54,52,51,99,94,83,29.96,29.90,20,6,26,0.00
2013-8-5,59,54,52,54,53,51,98,94,83,29.97,29.89,19,5,23,0.01
2013-8-6,61,56,52,56,54,51,98,92,82,29.98,29.91,21,6,25,0.01
2013-8-7,64,58,55,57,56,54,98,91,76,30.05,29.97,21,6,24,0.02
2013-8-8,65,58,54,58,56,52,98,92,74,29.97,29.88,17,5,25,0.04
2013-8-9,64,57,53,58,55,52,98,93,79,29.94,29.86,18,5,23,0.02
2013-8-10,64,58,55,58,56,54,98,93,80,29.99,29.93,17,5,24,0.00
2013-8-11,59,55,54,56,54,53,99,97,88,29.97,29.88,18,5,25,0.01
2013-8-12,64,57,54,58,55,53,99,94,80,29.94,29.88,19,7,23,0.00
2013-8-13,71,60,55,59,55,53,95,86,64,29.92,29.85,17,6,23,0.00
2013-8-14,66,58,53,60,56,52,98,92,78,29.93,29.84,20,7,24,0.00
2013-8-15,70,62,58,64,60,57,99,94,81,29.91,29.84,14,4,21,0.00
2013-8-16,63,59,56,60,58,56,99,96,88,29.94,29.87,20,5,23,0.01
2013-8-17,67,59,56,61,57,55,98,93,79,29.93,29.81,21,7,26,0.00
2013-8-18,71,62,55,61,57,55,99,87,69,29.82,29.71,15,5,19,0.00
2013-8-19,73,61,56,61,57,54,97,88,65,29.83,29.72,24,5,26,0.00
2013-8-20,67,60,56,59,57,55,99,90,74,29.83,29.76,24,6,28,0.00
2013-8-21,66,59,56,57,55,54,95,87,73,29.88,29.81,18,6,20,0.00
2013-8-22,66,60,57,57,55,54,92,84,70,29.91,29.83,16,5,28,0.00
2013-8-23,60,57,55,56,55,53,95,92,86,29.87,29.74,16,6,24,0.00
2013-8-24,65,59,55,59,56,54,98,92,79,29.84,29.77,18,6,23,0.00
2013-8-25,70,62,59,64,60,58,99,93,80,29.88,29.82,13,3,17,0.01
2013-8-26,66,60,58,59,57,56,97,90,75,29.95,29.84,18,4,23,0.02
2013-8-27,65,58,54,60,57,53,99,95,85,29.84,29.76,17,5,25,0.00
2013-8-28,70,61,56,64,60,56,100,95,80,29.88,29.79,15,4,22,0.01
2013-8-29,70,62,59,63,60,58,100,94,78,30.00,29.88,15,4,20,0.02
2013-8-30,72,62,58,63,60,57,100,91,74,29.98,29.85,17,5,22,0.01
2013-8-31,64,58,55,60,57,54,99,96,86,29.92,29.83,16,6,22,0.01
2013-9-1,67,60,55,61,58,54,99,93,79,29.89,29.83,17,6,24,0.00
2013-9-2,72,64,60,64,61,59,99,92,75,29.90,29.81,17,5,25,0.00
2013-9-3,69,62,58,62,60,57,99,91,74,29.94,29.86,23,6,24,0.00
2013-9-4,70,62,58,62,60,58,98,91,74,29.97,29.87,24,7,27,0.00
2013-9-5,70,62,57,61,58,55,98,89,71,29.96,29.88,18,7,28,0.00
2013-9-6,84,68,56,61,55,48,95,66,36,29.92,29.75,20,4,22,0.00
2013-9-7,82,68,55,61,56,48,98,67,43,29.80,29.75,13,3,19,0.00
2013-9-8,66,58,53,60,56,53,99,93,79,29.81,29.71,15,5,18,0.00
2013-9-9,68,58,53,60,56,53,99,93,72,29.75,29.64,16,5,21,0.01
2013-9-10,68,61,56,61,58,55,99,90,74,29.83,29.67,25,9,31,0.01
2013-9-11,69,63,61,60,58,57,92,84,70,29.93,29.82,17,7,23,0.00
2013-9-12,68,61,57,61,59,56,98,94,78,29.91,29.83,16,4,24,0.02
2013-9-13,60,56,54,57,56,54,99,97,90,29.84,29.70,25,8,31,0.02
2013-9-14,64,57,54,58,56,54,99,95,82,29.76,29.68,22,7,27,0.02
2013-9-15,69,61,56,60,57,54,98,86,68,29.80,29.70,21,7,23,0.00
2013-9-16,67,60,56,59,57,55,99,91,71,29.83,29.72,20,6,27,0.01
2013-9-17,65,60,55,57,55,52,97,86,69,29.82,29.76,27,9,32,0.00
2013-9-18,74,60,53,58,53,51,95,79,48,29.85,29.76,18,4,21,0.00
2013-9-19,75,61,52,58,53,49,93,77,54,29.79,29.69,16,4,18,0.00
2013-9-20,69,60,53,63,58,52,99,92,79,29.80,29.70,19,6,21,0.00
2013-9-21,64,60,56,60,58,55,98,92,84,29.83,29.74,19,6,23,0.53
2013-9-22,66,59,53,58,55,53,99,87,67,29.94,29.83,22,4,26,0.01
2013-9-23,75,63,56,62,57,52,97,82,55,29.95,29.87,19,4,22,0.00
2013-9-24,67,60,56,59,55,52,94,86,73,29.94,29.85,21,6,29,0.00
2013-9-25,64,58,54,53,50,47,92,77,63,29.88,29.75,20,8,31,0.00
2013-9-26,68,59,52,50,46,37,83,64,38,29.91,29.77,20,4,22,0.00
2013-9-27,76,63,53,50,44,35,88,52,23,30.02,29.91,16,3,19,0.00
2013-9-28,75,61,52,56,52,41,96,74,30,30.01,29.94,17,3,24,0.00
2013-9-29,70,62,55,62,59,54,98,89,70,30.04,29.98,14,3,18,0.00
2013-9-30,67,61,55,63,59,48,99,93,74,30.00,29.91,17,5,19,0.01
2013-10-1,68,58,53,53,52,50,95,79,56,29.95,29.85,12,4,18,0.00
2013-10-2,66,57,52,53,50,46,94,78,59,29.95,29.86,19,5,22,0.00
2013-10-3,68,60,50,49,42,32,83,55,26,30.01,29.89,17,4,24,0.00
2013-10-4,79,70,62,39,32,25,34,25,14,30.01,29.89,14,4,22,0.00
2013-10-5,85,71,62,45,33,23,50,27,11,30.11,30.01,8,2,12,0.00
2013-10-6,84,69,59,46,36,29,56,31,15,30.04,29.91,10,2,13,0.00
2013-10-7,75,63,53,51,43,31,88,52,29,29.92,29.81,16,3,19,0.00
2013-10-8,66,56,50,53,50,48,92,81,57,29.84,29.65,16,4,21,0.00
2013-10-9,64,56,49,50,48,44,93,77,49,29.70,29.56,14,3,16,0.00
2013-10-10,62,54,50,52,50,47,95,84,68,29.94,29.69,18,4,20,0.00
2013-10-11,58,52,49,51,49,47,96,89,75,30.02,29.93,13,4,19,0.00
2013-10-12,56,52,48,51,49,47,97,90,79,29.95,29.85,18,6,23,0.00
2013-10-13,71,57,50,54,49,41,97,79,36,29.99,29.85,17,2,18,0.00
2013-10-14,77,62,51,53,46,39,89,59,27,30.05,29.93,10,2,12,0.00
2013-10-15,79,65,55,52,41,32,82,45,18,29.97,29.88,11,2,14,0.00
2013-10-16,82,67,58,52,40,31,80,41,18,30.01,29.91,11,2,13,0.00
2013-10-17,80,64,52,51,43,31,92,50,22,30.01,29.90,10,2,15,0.00
2013-10-18,62,52,48,52,49,47,98,89,68,29.99,29.92,14,3,17,0.00
2013-10-19,76,55,47,54,49,46,98,84,42,30.01,29.94,11,2,17,0.01
2013-10-20,59,51,47,52,49,46,99,93,77,29.96,29.86,15,4,20,0.01
2013-10-21,57,50,48,51,49,48,99,95,80,29.95,29.86,17,4,18,0.00
2013-10-22,62,51,48,55,49,48,99,95,76,29.96,29.87,13,3,19,0.00
2013-10-23,58,50,47,53,49,47,99,96,79,29.92,29.85,15,4,21,0.00
2013-10-24,57,52,49,50,49,48,97,91,78,30.04,29.91,11,3,15,0.00
2013-10-25,63,55,49,53,50,48,95,85,66,30.10,30.01,16,2,16,0.00
2013-10-26,69,55,49,56,51,48,98,88,58,30.08,29.96,12,3,21,0.01
2013-10-27,55,52,49,51,50,48,99,93,82,29.97,29.62,22,7,31,0.00
2013-10-28,58,53,50,51,49,47,93,87,73,29.78,29.60,26,7,30,0.00
2013-10-29,60,54,50,52,49,45,95,84,63,29.99,29.78,16,3,18,0.00
2013-10-30,65,54,48,53,49,46,97,84,60,30.08,29.98,10,2,15,0.01
2013-10-31,71,57,49,52,49,43,95,76,43,30.11,30.00,12,2,14,0.00
2013-11-1,73,60,52,52,48,44,92,67,38,30.06,29.94,8,2,11,0.00
2013-11-2,60,53,48,54,49,45,98,87,60,29.96,29.84,20,4,25,0.00
2013-11-3,61,53,48,48,43,38,88,70,43,29.99,29.86,15,2,17,0.00
2013-11-4,64,56,46,46,40,33,88,58,33,30.00,29.85,12,3,16,0.00
2013-11-5,74,60,51,50,40,32,87,50,25,30.14,29.99,9,1,13,0.00
2013-11-6,71,62,52,46,41,37,78,48,30,30.18,30.07,6,2,10,0.00
2013-11-7,70,59,53,52,46,40,95,64,38,30.10,30.01,13,2,17,0.00
2013-11-8,70,57,50,55,51,47,99,80,57,30.01,29.90,12,4,17,0.01
2013-11-9,70,55,49,53,50,47,96,83,49,29.97,29.90,13,3,17,0.01
2013-11-10,62,54,50,53,50,48,94,87,69,30.05,29.96,17,3,19,0.02
2013-11-11,65,56,51,53,50,46,92,82,65,30.10,30.00,11,2,14,0.00
2013-11-12,70,60,54,53,51,48,95,74,50,30.19,30.08,9,2,11,0.00
2013-11-13,69,56,51,57,53,51,98,90,62,30.18,30.04,14,3,17,0.01
2013-11-14,55,52,50,54,50,48,99,95,86,30.05,29.82,24,7,28,0.01
2013-11-15,61,53,48,50,47,44,93,82,58,29.83,29.67,21,5,29,0.00
2013-11-16,60,52,46,51,48,43,96,86,61,29.86,29.70,17,5,24,0.00
2013-11-17,58,52,49,50,48,46,97,87,70,30.03,29.86,14,4,16,0.00
2013-11-18,57,51,47,50,48,46,96,87,69,30.09,30.02,13,2,16,0.00
2013-11-19,58,55,52,56,52,48,97,90,81,30.03,29.87,13,2,16,0.28
2013-11-20,59,55,50,57,54,48,98,97,88,29.87,29.77,16,4,18,0.85
2013-11-21,61,55,50,50,37,25,97,58,26,29.90,29.83,13,4,21,0.02
2013-11-22,71,61,54,43,22,13,55,24,12,29.94,29.84,17,3,19,0.00
2013-11-23,66,57,51,50,35,21,91,49,22,30.03,29.87,13,4,23,0.00
2013-11-24,63,53,47,50,46,42,94,77,47,30.18,30.02,9,1,10,0.00
2013-11-25,65,54,46,47,45,42,93,72,45,30.25,30.17,7,2,10,0.00
2013-11-26,63,54,49,47,44,41,84,69,46,30.19,29.96,10,3,11,0.00
2013-11-27,66,56,49,49,46,44,86,70,50,29.96,29.77,6,2,10,0.00
2013-11-28,68,57,52,48,45,42,87,66,41,30.00,29.79,7,2,12,0.00
2013-11-29,68,56,50,53,48,42,94,75,40,30.14,30.00,12,2,13,0.00
2013-11-30,62,52,47,54,49,46,98,89,70,30.20,30.12,11,1,12,0.01
2013-12-1,70,56,48,53,48,42,96,78,38,30.27,30.15,8,1,9,0.00
2013-12-2,59,52,48,53,50,47,99,94,79,30.16,29.90,20,6,24,0.01
2013-12-3,54,50,46,53,39,26,98,68,46,29.89,29.78,29,6,29,0.02
2013-12-4,52,45,41,34,27,22,69,49,34,30.01,29.88,7,2,13,0.00
2013-12-5,51,43,36,35,27,16,76,54,25,30.09,30.01,7,2,13,0.00
2013-12-6,50,45,38,48,38,29,95,75,46,30.12,29.85,27,5,35,0.42
2013-12-7,49,43,38,46,32,26,94,64,42,30.18,29.86,18,5,31,0.47
2013-12-8,46,40,35,32,25,19,80,57,35,30.25,30.15,12,3,16,0.00
2013-12-9,51,42,35,32,21,13,68,44,21,30.34,30.24,16,3,21,0.00
2013-12-10,53,45,38,33,30,26,77,58,36,30.33,30.13,11,2,13,0.00
2013-12-11,58,48,39,36,32,27,85,57,31,30.16,30.10,8,2,14,0.00
2013-12-12,60,49,42,47,38,34,94,70,42,30.19,30.10,12,2,15,0.00
2013-12-13,60,50,44,47,44,36,96,82,44,30.26,30.15,5,1,10,0.01
2013-12-14,63,51,42,46,39,34,96,67,36,30.31,30.23,10,2,15,0.00
2013-12-15,61,52,44,42,39,37,86,63,43,30.28,30.16,8,3,11,0.00
2013-12-16,68,57,48,39,37,34,73,50,30,30.16,30.04,11,3,12,0.00
2013-12-17,64,56,49,44,40,36,73,56,46,30.10,29.95,11,3,12,0.00
2013-12-18,56,50,46,48,44,38,92,81,51,29.95,29.70,22,5,29,0.00
2013-12-19,58,51,46,46,36,18,90,60,27,29.87,29.66,20,4,29,0.00
2013-12-20,58,50,44,46,31,13,90,51,24,29.94,29.85,11,2,14,0.00
2013-12-21,58,51,45,50,47,44,96,88,71,30.01,29.90,10,2,16,0.00
2013-12-22,66,55,47,48,44,38,96,68,37,30.21,30.01,6,1,8,0.01
2013-12-23,63,54,46,46,42,40,84,65,45,30.31,30.20,6,1,9,0.00
2013-12-24,69,56,47,47,42,38,85,60,39,30.27,30.13,5,1,9,0.00
2013-12-25,67,56,49,44,41,38,76,57,41,30.20,30.11,12,2,17,0.00
2013-12-26,68,56,48,45,40,36,83,56,36,30.18,30.09,10,4,11,0.00
2013-12-27,60,54,46,44,40,37,84,60,49,30.15,30.05,9,3,12,0.00
2013-12-28,62,53,43,42,38,33,80,59,39,30.07,29.96,11,1,13,0.00
2013-12-29,68,57,51,35,29,19,52,36,16,30.09,30.01,8,3,13,0.00
2013-12-30,63,52,47,48,41,34,94,67,39,30.18,30.09,9,2,12,0.00
2013-12-31,62,50,44,48,44,36,96,81,40,30.20,30.09,6,1,10,0.01
2014-1-1,64,52,44,48,43,36,93,72,47,30.14,30.05,6,1,9,0.00
2014-1-2,66,56,47,43,38,34,74,53,33,30.10,29.97,9,2,12,0.00